Погода в Дружбовке

Украина / Херсонская область     46°47′25″N   34°44′28″E
темп.,
°C
ветер,
м/с
пор.,
м/с
влажн.,
%
обл.,
%
осадки,
мм/ч
давл.,
гПа
погр.,
м
15 апреля, чт
чт1500:00+7юв589675 0.0 1014259
03:00+7ю3693100 0.0 1014137
06:00+8ююв3588100 0.3 1013148
09:00+9ю4888100 0.3 1014553
12:00+13ююз695514 0.1 10131358
15:00+12юз81066100 0.2 10141346
18:00+11юз8116656 0.2 10141149
21:00+8юз6107755 0.2 1015693
16 апреля, пт
пт1600:00+8ююз6977100 0.0 1015727
03:00+7юз61084100 0.0 1016595
06:00+7юз51184100 0.0 1016635
09:00+10юз697291 0.0 1017760
12:00+11ююз685991 0.2 10171079
15:00+13ююз795470 0.5 10171785
18:00+12юз795110 0.4 10171672
21:00+7зюз488034 0.5 1019209
17 апреля, сб
сб1700:00+5зсз23845 0.0 102056
03:00+4з34865 0.0 102180
06:00+4з358638 0.0 1022153
09:00+7сз457397 0.0 1023706
12:00+10ссз346189 0.0 10231085
15:00+13ссз334955 0.0 10221520
18:00+12ссв2251100 0.0 1022656
21:00+9юв236698 0.0 1022124
18 апреля, вс
вс1800:00+6в2283100 0.0 102130
03:00+6в3485100 0.0 102078
06:00+6всв3679100 0.0 1020188
09:00+9всв4664100 0.0 1019512
12:00+13в4451100 0.0 10191298
15:00+15в44425 0.0 10181641
18:00+15вюв44445 0.0 10181250
21:00+9юв23695 0.0 101867
19 апреля, пн
пн1900:00+7юв227556 0.0 101922
03:00+7св3375100 0.0 101839
06:00+8в376899 0.0 1017210
09:00+11всв5960100 0.0 1017448
12:00+15в794682 0.0 10151200
15:00+15вюв8948100 0.0 10131223
18:00+10в91581100 1.8 1011607
21:00+9в101885100 4.8 1009724